User: anonymous   Login
Location: Unspecified
(0.0000°N, 0.0000°E)
Time: 22:06:12
(UTC+00:00)
Language:

AIST 2 - Orbit

View from above orbital plane
View from above orbital plane
View from above satellite
View from above satellite

Ground track
Ground track

The orbit data is extracted from the following two-line orbital elements,

1 39133U 13015D   23083.51570001  .00007463  00000-0  48782-3 0  9996
2 39133  64.8719 100.3434 0034502 255.0551 104.6841 15.07991759545313
Epoch (UTC): 24 March 2023 12:22:36
Eccentricity: 0.0034502
inclination: 64.8719°
perigee height: 518 km
apogee height: 566 km
right ascension of ascending node: 100.3434°
argument of perigee: 255.0551°
revolutions per day: 15.07991759
mean anomaly at epoch: 104.6841°
orbit number at epoch: 54531

The dashed part of the orbit path shows where the satellite is in the earth's shadow,  

DLR